[[[{"header":{"parameterUnit":"kt","parameterCategory":2,"dx":1,"dy":1,"la1":30.253999710083008,"la2":30.299108505249023,"lo1":-89.0895004272461,"lo2":-89.04439544677734,"nx":28,"ny":28,"refTime":"2022-10-31T21:00:00:Z","depth":"0","parameterNumber":2,"parameterNumberName":"U-component_of_CURRENTS"},"data":[0.665,0.6713,0.6738,0.6775,0.6811,0.6798,0.6827,0.6867,0.7059,0.7291,0.7514,0.7833,0.8288,0.8692,0.8551,0.8353,0.7609,0.7428,0.7348,0.7849,0.7871,0.7893,0.7744,0.7672,0.7671,0.5859,0.5847,0.5837,0.6635,0.6685,0.6745,0.6836,0.688,0.6951,0.7073,0.7083,0.7286,0.7679,0.8039,0.8465,0.8779,0.9013,0.9245,0.9056,0.8432,0.8762,0.7824,0.7629,0.8611,0.8493,0.8579,0.8579,0.858,0.858,0.858,0.8581,0.6641,0.6668,0.6789,0.687,0.6961,0.703,0.7051,0.7281,0.7473,0.779,0.8197,0.8565,0.9026,0.9686,0.9729,0.9586,0.9463,0.9216,0.917,0.875,0.8415,0.9596,0.9915,0.9919,0.9922,0.9925,0.9927,0,0.67,0.6746,0.683,0.6931,0.7026,0.7106,0.7272,0.7337,0.7629,0.7825,0.8217,0.8499,0.9137,0.935,0.9832,0.9897,0.9115,0.9641,0.934,0.8518,0.8048,0.7815,0.8796,0.8992,0.899,0.8989,0.8989,0.8988,0.6784,0.6816,0.6972,0.7028,0.7107,0.7212,0.7295,0.7478,0.7599,0.7965,0.8069,0.8456,0.8758,0.9254,0.9446,0.9712,0.9276,0.9582,0.9273,0.9035,0.8988,0.854,0.8303,0.8972,0.8974,0.8976,0.8977,0,0.6842,0.6952,0.7036,0.7206,0.7253,0.7304,0.7476,0.7549,0.7705,0.7866,0.792,0.8171,0.8488,0.8635,0.8821,0.8883,0.8874,0.9238,0.8952,0.8977,0.898,0.8908,0.8647,0.8395,0.9601,0.9611,0.9619,0,0.6966,0.7027,0.7188,0.7227,0.7301,0.7443,0.7517,0.7609,0.7741,0.7854,0.7936,0.8075,0.8104,0.8306,0.8352,0.8679,0.8561,0.8752,0.8811,0.8491,0.8493,0.8232,0.8138,0.8435,0.8433,0.843,0.8428,0,0.6983,0.7161,0.7227,0.7279,0.7448,0.7488,0.7581,0.7681,0.7741,0.7855,0.7919,0.7972,0.8059,0.8102,0.8272,0.8148,0.8472,0.8299,0.8676,0.87,0.8446,0.8448,0.8323,0.8425,0.8424,0.8424,0.8423,0,0.7073,0.7164,0.7264,0.7396,0.7432,0.7511,0.7607,0.7695,0.7784,0.7821,0.7867,0.7898,0.7961,0.7931,0.8061,0.7995,0.8087,0.8133,0.8144,0.8387,0.8401,0.8354,0.8523,0.8227,0.8306,0.8304,0.8302,0,0.7045,0.7169,0.7246,0.7371,0.7436,0.7518,0.7591,0.7666,0.7724,0.7785,0.7799,0.7858,0.7836,0.7862,0.7887,0.7936,0.802,0.7908,0.8061,0.8067,0.8316,0.8525,0.8214,0.8481,0.8272,0.8275,0.8277,0,0.6999,0.7153,0.7171,0.7225,0.737,0.7434,0.7524,0.7608,0.7643,0.7712,0.7752,0.7806,0.7802,0.781,0.7818,0.7845,0.7981,0.784,0.784,0.796,0.8148,0.8448,0.8498,0.7946,0.7948,0.7949,0.8254,0,0.701,0.7082,0.7133,0.7255,0.7324,0.7407,0.7494,0.7543,0.7574,0.761,0.7668,0.7684,0.7709,0.7745,0.7729,0.7801,0.784,0.7785,0.7726,0.78,0.7932,0.7951,0.77,0.7698,0.7696,0.7695,0,0,0.6932,0.7015,0.708,0.7161,0.7224,0.7297,0.7369,0.7417,0.7499,0.7507,0.7516,0.7576,0.7585,0.7632,0.7675,0.768,0.7732,0.7662,0.7766,0.7774,0.7782,0.791,0.7929,0.7692,0.7692,0.7691,0.7691,0,0.6936,0.6982,0.7044,0.7114,0.7232,0.7283,0.731,0.74,0.7424,0.7478,0.7479,0.7508,0.7549,0.7569,0.7577,0.7654,0.7674,0.7691,0.7715,0.7753,0.7763,0.7772,0.79,0.7919,0.7687,0.7687,0.7687,0,0.6895,0.6969,0.7002,0.7115,0.7178,0.7258,0.7255,0.7339,0.7392,0.7353,0.7412,0.7425,0.7429,0.7488,0.751,0.7478,0.7608,0.7547,0.7555,0.7528,0.7563,0.7575,0.7586,0.744,0.7439,0.7439,0,0,0.6898,0.6956,0.706,0.7124,0.7166,0.7232,0.7273,0.731,0.735,0.7357,0.7372,0.7384,0.7411,0.742,0.7445,0.7471,0.7484,0.7519,0.7531,0.754,0.7519,0.7556,0.7568,0.7436,0.7436,0.7436,0,0,0.6904,0.7018,0.7041,0.7109,0.7196,0.7278,0.7318,0.7332,0.7346,0.7343,0.7336,0.7338,0.7393,0.7375,0.7343,0.7447,0.7398,0.7403,0.7461,0.7475,0.7486,0.7459,0.7331,0,0,0,0,0,0.6972,0.7007,0.7027,0.7053,0.7164,0.7266,0.7278,0.7329,0.7314,0.734,0.7336,0.7328,0.7375,0.7346,0.7344,0.7407,0.7405,0.741,0.7415,0.7498,0.7513,0.7526,0,0,0,0,0,0,0.6983,0.7011,0.7028,0.7112,0.7141,0.7262,0.7255,0.7267,0.7314,0.7317,0.7326,0.7328,0.7328,0.7345,0.7344,0.7405,0.7332,0.7407,0.7412,0.7416,0.7503,0.7515,0.7526,0,0,0,0,0,0.6992,0.7015,0.7186,0.7111,0.7135,0.722,0.7254,0.7264,0.7282,0.7315,0.7318,0.7328,0.7327,0.7327,0.7344,0.7407,0.7332,0.7332,0.741,0.7414,0.7417,0.7509,0,0,0,0,0,0,0.6999,0.6989,0.7191,0.7201,0.7119,0.7214,0.723,0.7262,0.7275,0.7284,0.7316,0.7318,0.7326,0.7327,0.7327,0.7411,0.7333,0.7333,0.7332,0.7413,0.7416,0.7418,0,0,0,0,0,0,0.6979,0.6995,0.7195,0.7202,0.7211,0.7208,0.7223,0.7218,0.7272,0.7269,0.7275,0.7316,0.7326,0.7326,0.7326,0.7315,0.7333,0.7333,0.7333,0.7333,0.7415,0.7417,0,0,0,0,0,0,0.6986,0.7001,0.7198,0.7205,0.7214,0.7306,0.72,0.7299,0.7321,0.7264,0.7324,0.7325,0.7325,0.7325,0.7326,0.7314,0.7315,0.7333,0.7333,0.7333,0.7333,0,0,0,0,0,0,0,0.6993,0.6889,0.7159,0.7208,0.7215,0.7291,0.7292,0.7292,0.7322,0.7323,0.7324,0.7324,0.7335,0.7335,0.7335,0.7314,0,0,0.7333,0.7333,0,0,0,0,0,0,0,0,0.6884,0.6888,0.716,0.7163,0.7166,0.7291,0.7292,0.7292,0.7322,0.7323,0.7323,0.7324,0.7335,0.7335,0.7335,0,0,0,0,0,0,0,0,0,0,0,0,0,0,0,0.716,0.7163,0,0.7291,0.7292,0.7292,0.7322,0.7323,0.7323,0.7324,0.7335,0.7335,0.7335,0,0,0,0,0,0,0,0,0,0,0,0,0,0,0,0,0,0,0,0,0,0,0,0,0,0,0,0,0,0,0,0,0,0,0,0,0,0,0,0,0,0,0,0,0,0,0,0,0,0,0,0,0,0,0,0,0,0,0,0,0,0,0,0,0,0,0,0,0]}],[{"header":{"parameterUnit":"kt","parameterCategory":2,"dx":1,"dy":1,"la1":30.253999710083008,"la2":30.299108505249023,"lo1":-89.0895004272461,"lo2":-89.04439544677734,"nx":28,"ny":28,"refTime":"2022-10-31T21:00:00:Z","depth":"0","parameterNumber":3,"parameterNumberName":"V-component_of_CURRENTS"},"data":[0.0373,0.0592,0.0637,0.1087,0.1251,0.1578,0.1779,0.2303,0.2834,0.3884,0.4491,0.4833,0.3992,0.1014,-0.1123,-0.1657,-0.2517,-0.2493,-0.3078,-0.265,-0.265,-0.2649,-0.2716,-0.2686,-0.2688,-0.383,-0.3842,-0.3851,0.018,0.0254,0.0431,0.0626,0.0875,0.0817,0.1142,0.1426,0.2028,0.2688,0.3181,0.3431,0.2645,0.152,0.0017,-0.0881,-0.1395,-0.1478,-0.1929,-0.2115,-0.1211,-0.1197,-0.0842,-0.0842,-0.0841,-0.0841,-0.084,-0.084,-0.0165,-0.0065,0.001,0.0158,0.0299,0.0528,0.071,0.0957,0.1315,0.1818,0.1822,0.2339,0.1723,0.1032,0.037,-0.0743,-0.0928,-0.1099,-0.143,-0.1643,-0.1834,-0.0739,-0.0377,-0.038,-0.0383,-0.0385,-0.0387,0,-0.0453,-0.0461,-0.041,-0.0268,-0.0163,-0.0061,0.0059,0.0224,0.0208,0.0449,0.0826,0.0987,0.0716,0.0511,-0.0073,-0.0406,-0.1598,-0.1161,-0.1726,-0.1894,-0.2059,-0.2282,-0.1448,-0.1141,-0.1148,-0.1154,-0.1158,-0.1161,-0.0775,-0.0714,-0.0743,-0.0666,-0.0674,-0.0616,-0.0529,-0.0653,-0.0513,-0.0409,-0.0226,-0.0259,-0.008,-0.0413,-0.0908,-0.126,-0.183,-0.134,-0.1531,-0.1954,-0.23,-0.2547,-0.2729,-0.1244,-0.1233,-0.1225,-0.1218,0,-0.0932,-0.1027,-0.0963,-0.1051,-0.1056,-0.0988,-0.0974,-0.089,-0.0983,-0.0784,-0.0776,-0.0937,-0.0989,-0.1392,-0.1664,-0.1908,-0.2224,-0.206,-0.1776,-0.1746,-0.2053,-0.2354,-0.2483,-0.2678,-0.1853,-0.1845,-0.1839,0,-0.122,-0.1171,-0.1298,-0.1253,-0.1183,-0.1325,-0.1234,-0.1319,-0.1352,-0.1215,-0.1525,-0.1399,-0.186,-0.193,-0.2208,-0.224,-0.234,-0.2389,-0.2392,-0.2229,-0.2193,-0.2595,-0.2898,-0.269,-0.2691,-0.2692,-0.2693,0,-0.1392,-0.1454,-0.1406,-0.1422,-0.1522,-0.1504,-0.1556,-0.1653,-0.1632,-0.1746,-0.1691,-0.1934,-0.1936,-0.216,-0.2356,-0.2464,-0.2467,-0.2646,-0.2482,-0.2464,-0.2262,-0.2225,-0.2527,-0.2695,-0.2696,-0.2696,-0.2696,0,-0.1604,-0.1619,-0.1589,-0.1635,-0.1636,-0.1667,-0.1682,-0.1759,-0.1874,-0.1936,-0.2044,-0.217,-0.2293,-0.2433,-0.2596,-0.2616,-0.2694,-0.2785,-0.2783,-0.2555,-0.2612,-0.2203,-0.2085,-0.2565,-0.2753,-0.2754,-0.2755,0,-0.1697,-0.1696,-0.1762,-0.1774,-0.1764,-0.1878,-0.1926,-0.2036,-0.2125,-0.2166,-0.235,-0.2416,-0.2597,-0.262,-0.2717,-0.2828,-0.284,-0.2893,-0.2882,-0.2879,-0.2588,-0.2538,-0.2311,-0.2127,-0.2771,-0.2769,-0.2768,0,-0.1738,-0.1834,-0.1821,-0.1806,-0.1919,-0.1979,-0.2063,-0.2145,-0.2132,-0.2344,-0.2317,-0.2577,-0.2635,-0.2709,-0.2831,-0.2887,-0.2862,-0.2935,-0.2938,-0.2786,-0.2839,-0.259,-0.2555,-0.2945,-0.2945,-0.2944,-0.278,0,-0.1823,-0.1817,-0.1851,-0.1865,-0.1945,-0.2021,-0.2126,-0.2216,-0.2271,-0.2342,-0.2479,-0.2664,-0.2754,-0.285,-0.2919,-0.2975,-0.2949,-0.3027,-0.2969,-0.3017,-0.2946,-0.2936,-0.3066,-0.3067,-0.3068,-0.3068,0,0,-0.1788,-0.1778,-0.1851,-0.1871,-0.1899,-0.2037,-0.2058,-0.2167,-0.2341,-0.2362,-0.2409,-0.263,-0.2753,-0.2857,-0.2906,-0.3013,-0.299,-0.2945,-0.3034,-0.303,-0.3026,-0.2957,-0.2947,-0.307,-0.307,-0.307,-0.3071,0,-0.1781,-0.1782,-0.1791,-0.1863,-0.1972,-0.2034,-0.206,-0.2185,-0.2235,-0.238,-0.2422,-0.2545,-0.2741,-0.2813,-0.2871,-0.3015,-0.2968,-0.3073,-0.301,-0.304,-0.3035,-0.3031,-0.2962,-0.2952,-0.3072,-0.3072,-0.3072,0,-0.1729,-0.1738,-0.1754,-0.1828,-0.1905,-0.1964,-0.1987,-0.2117,-0.2162,-0.2247,-0.2346,-0.2458,-0.2585,-0.2737,-0.2812,-0.2798,-0.2929,-0.2957,-0.2959,-0.2899,-0.2926,-0.2923,-0.2921,-0.2932,-0.293,-0.2929,0,0,-0.17,-0.1712,-0.1782,-0.1825,-0.186,-0.1952,-0.2019,-0.2071,-0.2182,-0.2229,-0.231,-0.2418,-0.2532,-0.2604,-0.2734,-0.2887,-0.286,-0.2931,-0.2938,-0.2942,-0.2887,-0.2915,-0.2914,-0.2924,-0.2924,-0.2924,0,0,-0.1715,-0.1736,-0.1725,-0.1744,-0.1865,-0.1985,-0.2055,-0.2074,-0.2199,-0.2194,-0.2257,-0.2291,-0.2446,-0.2527,-0.245,-0.2689,-0.2675,-0.2695,-0.2597,-0.2608,-0.2615,-0.2502,-0.2423,0,0,0,0,0,-0.1717,-0.1728,-0.1717,-0.1726,-0.1819,-0.1978,-0.2006,-0.2064,-0.2016,-0.2093,-0.2175,-0.2168,-0.2509,-0.2443,-0.248,-0.2505,-0.2857,-0.2869,-0.288,-0.2795,-0.2804,-0.2812,0,0,0,0,0,0,-0.1722,-0.1727,-0.172,-0.1817,-0.1842,-0.1974,-0.1923,-0.1942,-0.2012,-0.2012,-0.2152,-0.2173,-0.2231,-0.2426,-0.246,-0.2481,-0.2412,-0.2861,-0.2871,-0.2881,-0.2798,-0.2806,-0.2812,0,0,0,0,0,-0.1726,-0.1731,-0.1831,-0.1823,-0.1843,-0.1937,-0.1919,-0.1935,-0.1993,-0.211,-0.213,-0.2031,-0.2231,-0.2264,-0.2446,-0.2464,-0.2389,-0.2401,-0.2868,-0.2876,-0.2883,-0.2802,0,0,0,0,0,0,-0.1729,-0.1776,-0.1841,-0.1855,-0.1788,-0.1935,-0.1947,-0.1929,-0.2088,-0.2108,-0.1991,-0.199,-0.2232,-0.2257,-0.2283,-0.2454,-0.237,-0.2383,-0.2391,-0.2874,-0.288,-0.2886,0,0,0,0,0,0,-0.1775,-0.1786,-0.1848,-0.1799,-0.1809,-0.1933,-0.1943,-0.2079,-0.209,-0.1961,-0.1965,-0.1989,-0.2197,-0.2254,-0.2273,-0.2487,-0.2356,-0.2368,-0.2376,-0.2382,-0.2879,-0.2884,0,0,0,0,0,0,-0.1784,-0.1793,-0.1796,-0.1803,-0.1812,-0.1978,-0.206,-0.2151,-0.2038,-0.1954,-0.203,-0.2027,-0.2193,-0.2214,-0.2267,-0.2471,-0.2483,-0.2357,-0.2365,-0.2371,-0.2374,0,0,0,0,0,0,0,-0.1791,-0.1675,-0.1753,-0.1807,-0.1814,-0.1986,-0.1991,-0.1995,-0.2037,-0.2034,-0.2031,-0.2028,-0.2288,-0.2301,-0.2314,-0.2459,0,0,-0.2355,-0.2361,0,0,0,0,0,0,0,0,-0.1676,-0.1675,-0.1754,-0.1756,-0.1759,-0.1987,-0.1991,-0.1994,-0.2037,-0.2034,-0.2032,-0.2029,-0.2292,-0.2302,-0.2313,0,0,0,0,0,0,0,0,0,0,0,0,0,0,0,-0.1754,-0.1756,0,-0.1988,-0.199,-0.1993,-0.2036,-0.2034,-0.2032,-0.203,-0.2295,-0.2303,-0.2312,0,0,0,0,0,0,0,0,0,0,0,0,0,0,0,0,0,0,0,0,0,0,0,0,0,0,0,0,0,0,0,0,0,0,0,0,0,0,0,0,0,0,0,0,0,0,0,0,0,0,0,0,0,0,0,0,0,0,0,0,0,0,0,0,0,0,0,0,0]}]],[[{"header":{"parameterUnit":"kt","parameterCategory":2,"dx":1,"dy":1,"la1":30.253999710083008,"la2":30.299108505249023,"lo1":-89.0895004272461,"lo2":-89.04439544677734,"nx":28,"ny":28,"refTime":"2022-10-31T21:00:00:Z","depth":"2","parameterNumber":2,"parameterNumberName":"U-component_of_CURRENTS"},"data":[0.4916,0.4977,0.504,0.5046,0.5135,0.4995,0.4919,0.4776,0.4798,0.4656,0.4694,0.5055,0.5428,0.4734,0.4722,0.4477,0.4734,0.4304,0.5903,0.5759,0.5831,0.6102,0.581,0,0,0,0,0,0.4993,0.5037,0.5233,0.5291,0.5358,0.5501,0.557,0.5496,0.5513,0.5781,0.588,0.5505,0.544,0.5633,0.5466,0.5491,0.5368,0.5264,0.5059,0.5157,0.5242,0.4972,0.4299,0.4292,0.4285,0.4278,0,0,0.5162,0.5139,0.5344,0.5431,0.56,0.5635,0.5636,0.5948,0.6111,0.6254,0.6654,0.6643,0.68,0.6644,0.6518,0.6484,0.6952,0.663,0.6654,0.669,0.6505,0.6422,0.6234,0.624,0.6246,0.6252,0.6256,0,0.5208,0.5247,0.5393,0.5559,0.5736,0.5856,0.6124,0.6224,0.667,0.6855,0.7098,0.7211,0.7468,0.7284,0.7388,0.7341,0.734,0.7201,0.8009,0.6715,0.6634,0.6554,0.6576,0.6515,0.6524,0.653,0.6535,0.6538,0.529,0.5338,0.5556,0.5654,0.5774,0.6016,0.6219,0.6542,0.6756,0.7181,0.7229,0.7535,0.7647,0.7836,0.7855,0.7907,0.8029,0.7401,0.7163,0.7812,0.7736,0.7718,0.77,0.6632,0.662,0.661,0.6602,0,0.5352,0.5484,0.5566,0.589,0.5978,0.6101,0.6438,0.6654,0.6929,0.7148,0.7218,0.7511,0.7727,0.7838,0.8017,0.7936,0.7998,0.7985,0.7465,0.7341,0.7728,0.7707,0.7895,0.7892,0.7889,0.7887,0.7885,0,0.5541,0.5556,0.5772,0.5864,0.6032,0.6259,0.6532,0.6715,0.7001,0.7181,0.735,0.7469,0.7605,0.7739,0.781,0.787,0.7963,0.7792,0.7733,0.7259,0.7204,0.7616,0.7579,0.7918,0.7917,0.7915,0.7914,0,0.5595,0.5645,0.5792,0.5837,0.6037,0.626,0.6393,0.6748,0.6959,0.7211,0.7297,0.7474,0.7536,0.7617,0.7759,0.7686,0.7915,0.7774,0.7688,0.7678,0.7149,0.7084,0.7912,0.7912,0.7912,0.7911,0.7911,0,0.5598,0.5688,0.5828,0.5894,0.5965,0.6063,0.6467,0.6649,0.6919,0.7088,0.7229,0.7253,0.7462,0.7362,0.7589,0.7511,0.7567,0.7584,0.7587,0.7338,0.7159,0.6805,0.6982,0.7558,0.7555,0.7552,0.7549,0,0.5547,0.5645,0.5728,0.5771,0.5811,0.5997,0.6194,0.6456,0.6651,0.6815,0.6946,0.7073,0.7102,0.7171,0.7264,0.7345,0.745,0.7341,0.726,0.726,0.7092,0.7376,0.6842,0.6958,0.751,0.7514,0.7517,0,0.5493,0.5527,0.5504,0.5525,0.5669,0.5791,0.6019,0.6287,0.6417,0.6568,0.6746,0.6983,0.6997,0.7025,0.7052,0.7124,0.7381,0.7051,0.7044,0.7113,0.7485,0.7339,0.7351,0.7284,0.7289,0.7292,0.7486,0,0.5384,0.5374,0.5409,0.5484,0.5638,0.5715,0.5876,0.6041,0.6116,0.62,0.6469,0.6507,0.6604,0.6703,0.6696,0.6941,0.688,0.6761,0.6582,0.6809,0.6864,0.689,0.6492,0.6486,0.6481,0.6476,0,0,0.5222,0.5302,0.5394,0.547,0.5571,0.5577,0.569,0.5759,0.5875,0.6022,0.599,0.6139,0.619,0.6364,0.6532,0.6497,0.6487,0.646,0.6699,0.6725,0.6748,0.6813,0.6843,0.6467,0.6465,0.6463,0.6462,0,0.5192,0.5265,0.5341,0.5418,0.5548,0.5562,0.5599,0.568,0.5796,0.5888,0.5885,0.6018,0.6045,0.6155,0.6175,0.6405,0.6324,0.6456,0.6623,0.6654,0.6687,0.6715,0.6786,0.6818,0.6449,0.645,0.645,0,0.5146,0.5212,0.5249,0.5403,0.5421,0.5486,0.5484,0.5586,0.5681,0.5559,0.5669,0.5716,0.5707,0.5875,0.5936,0.5837,0.6115,0.6021,0.6048,0.604,0.6059,0.6099,0.6134,0.5675,0.5674,0.5672,0,0,0.5131,0.5199,0.5311,0.5394,0.5443,0.5447,0.55,0.5545,0.5558,0.5568,0.5583,0.5588,0.5657,0.5682,0.574,0.58,0.575,0.5935,0.5972,0.6002,0.6012,0.604,0.6079,0.5665,0.5665,0.5665,0,0,0.5098,0.5193,0.52,0.5325,0.5427,0.5445,0.5515,0.5502,0.5521,0.55,0.5455,0.5463,0.5623,0.555,0.5466,0.5748,0.5588,0.5601,0.5817,0.586,0.5895,0.5911,0.5428,0,0,0,0,0,0.5072,0.5174,0.5179,0.5209,0.5296,0.5418,0.543,0.5501,0.5416,0.5508,0.5469,0.5438,0.5559,0.5481,0.547,0.5658,0.558,0.5595,0.5609,0.5903,0.595,0.599,0,0,0,0,0,0,0.5083,0.5109,0.5179,0.5194,0.522,0.5408,0.5343,0.5356,0.5419,0.5429,0.5431,0.5436,0.5433,0.5482,0.5473,0.5656,0.5431,0.5586,0.5599,0.561,0.5919,0.5958,0.5991,0,0,0,0,0,0.5093,0.5115,0.5253,0.5192,0.5213,0.5325,0.5343,0.5357,0.5377,0.5415,0.5421,0.5453,0.543,0.5427,0.5477,0.5665,0.5437,0.5434,0.5594,0.5604,0.5613,0.5938,0,0,0,0,0,0,0.51,0.506,0.5257,0.5267,0.5238,0.5322,0.5337,0.5356,0.5356,0.5371,0.5434,0.5442,0.5426,0.5425,0.5422,0.5678,0.5442,0.5438,0.5436,0.5602,0.561,0.5617,0,0,0,0,0,0,0.5053,0.5066,0.526,0.5313,0.5327,0.5318,0.5333,0.5287,0.5353,0.5366,0.5379,0.5438,0.5454,0.5422,0.5421,0.5343,0.5445,0.5442,0.544,0.5439,0.5608,0.5615,0,0,0,0,0,0,0.5059,0.507,0.5308,0.5319,0.5331,0.5411,0.5274,0.5357,0.5426,0.536,0.5438,0.5444,0.5452,0.545,0.5419,0.5342,0.5343,0.5445,0.5443,0.5442,0.5441,0,0,0,0,0,0,0,0.5064,0.4981,0.5245,0.5324,0.5334,0.536,0.5358,0.5357,0.5427,0.5432,0.5437,0.5441,0.5463,0.546,0.5456,0.534,0,0,0.5446,0.5444,0,0,0,0,0,0,0,0,0.4977,0.498,0.5245,0.5249,0.5254,0.536,0.5358,0.5357,0.5428,0.5432,0.5436,0.5439,0.5462,0.5459,0.5457,0,0,0,0,0,0,0,0,0,0,0,0,0,0,0,0.5246,0.5249,0,0.5359,0.5358,0.5357,0.5429,0.5432,0.5435,0.5438,0.5461,0.5459,0.5457,0,0,0,0,0,0,0,0,0,0,0,0,0,0,0,0,0,0,0,0,0,0,0,0,0,0,0,0,0,0,0,0,0,0,0,0,0,0,0,0,0,0,0,0,0,0,0,0,0,0,0,0,0,0,0,0,0,0,0,0,0,0,0,0,0,0,0,0,0]}],[{"header":{"parameterUnit":"kt","parameterCategory":2,"dx":1,"dy":1,"la1":30.253999710083008,"la2":30.299108505249023,"lo1":-89.0895004272461,"lo2":-89.04439544677734,"nx":28,"ny":28,"refTime":"2022-10-31T21:00:00:Z","depth":"2","parameterNumber":3,"parameterNumberName":"V-component_of_CURRENTS"},"data":[0.1528,0.1668,0.1761,0.215,0.2316,0.2687,0.295,0.3294,0.3521,0.3635,0.3506,0.3258,0.2324,0.1463,0.058,-0.0054,-0.0166,-0.0166,0.0005,0.0185,0.02,-0.0432,-0.0372,0,0,0,0,0,0.1493,0.1605,0.1736,0.202,0.222,0.2305,0.2676,0.2876,0.3279,0.3401,0.3526,0.2838,0.2137,0.1339,0.018,-0.0483,-0.0543,-0.0661,-0.0607,-0.0598,-0.0591,-0.0565,-0.0672,-0.0674,-0.0676,-0.0678,0,0,0.1414,0.1539,0.1691,0.191,0.2047,0.2322,0.2457,0.2645,0.2903,0.3181,0.3149,0.307,0.2369,0.1234,0.0539,-0.0225,-0.0217,-0.0505,-0.0501,-0.0497,-0.0466,-0.0406,-0.0545,-0.0545,-0.0546,-0.0546,-0.0546,0,0.1406,0.1546,0.1644,0.1838,0.1931,0.2097,0.218,0.2304,0.2364,0.2508,0.2768,0.2706,0.2137,0.1516,0.0665,0.0252,-0.0218,-0.0308,-0.0252,-0.0356,-0.029,-0.0318,-0.0306,-0.0416,-0.0415,-0.0415,-0.0415,-0.0415,0.1399,0.1494,0.1741,0.1831,0.1855,0.1914,0.1927,0.1904,0.1983,0.2085,0.2257,0.2017,0.1969,0.1342,0.0674,0.0052,-0.0003,-0.0278,-0.0419,-0.034,-0.0372,-0.0358,-0.0345,-0.0411,-0.0412,-0.0412,-0.0412,0,0.1399,0.1494,0.1683,0.1771,0.1807,0.189,0.1857,0.1872,0.1811,0.191,0.1862,0.1765,0.1474,0.1081,0.0587,0.0291,-0.0094,-0.0198,-0.0088,-0.0124,-0.0342,-0.0331,-0.0474,-0.0476,-0.0477,-0.0478,-0.048,0,0.1321,0.1501,0.1627,0.1649,0.1803,0.175,0.1753,0.1766,0.171,0.1765,0.1508,0.1557,0.1066,0.0878,0.0475,0.0118,0.0138,-0.022,-0.0267,-0.0221,-0.0218,-0.024,-0.0237,-0.0256,-0.0255,-0.0255,-0.0254,0,0.1147,0.1469,0.1563,0.1617,0.1719,0.1687,0.1722,0.1623,0.1589,0.146,0.1462,0.12,0.1094,0.0765,0.0364,0.0303,0.0052,-0.0053,-0.0224,-0.0225,-0.0275,-0.0277,-0.0253,-0.0253,-0.0253,-0.0252,-0.0252,0,0.1077,0.1178,0.1354,0.1495,0.1546,0.1628,0.1622,0.1628,0.1554,0.1427,0.1299,0.1132,0.0897,0.0755,0.0382,0.0416,0.0178,0.0008,0.0,-0.0082,-0.0122,-0.0166,-0.0172,-0.0082,-0.0081,-0.0079,-0.0078,0,0.085,0.1086,0.1076,0.1353,0.1484,0.1428,0.1471,0.1394,0.1296,0.1283,0.1076,0.0965,0.0766,0.0626,0.0498,0.0208,0.0112,0.0181,-0.0073,-0.0079,-0.0089,-0.009,-0.0053,-0.0146,-0.0058,-0.006,-0.0062,0,0.0675,0.0831,0.093,0.1012,0.11,0.1144,0.1195,0.117,0.1195,0.1073,0.1045,0.0831,0.0659,0.0586,0.0405,0.0278,0.0146,0.0113,0.0105,0.0086,-0.004,-0.006,-0.0075,0.0063,0.0061,0.0059,-0.0046,0,0.0575,0.0709,0.0803,0.0969,0.0957,0.1046,0.1027,0.1014,0.0962,0.0866,0.075,0.0586,0.0466,0.0404,0.027,0.0159,0.0116,0.0065,0.0003,0.0024,-0.0023,-0.0034,0.0066,0.0064,0.0062,0.006,0,0,0.0457,0.0556,0.0524,0.0649,0.067,0.0675,0.0761,0.0744,0.067,0.0583,0.0545,0.0414,0.0293,0.023,0.0154,0.0133,0.0062,0.0072,0.0022,0.0019,0.0015,-0.0028,-0.0037,0.0057,0.0056,0.0056,0.0055,0,0.0435,0.0436,0.051,0.0541,0.0574,0.0586,0.0628,0.0605,0.0517,0.0518,0.04,0.0306,0.0253,0.0119,0.0073,0.0111,-0.0005,0.0065,0.0098,0.0009,0.0009,0.0007,-0.0035,-0.0041,0.005,0.005,0.0051,0,0.0344,0.0368,0.0371,0.0396,0.0428,0.0533,0.0406,0.0424,0.0438,0.0297,0.0317,0.0207,0.0108,0.0044,0.0023,-0.0013,-0.0071,-0.0045,-0.0037,-0.0049,-0.0145,-0.0145,-0.0145,-0.0147,-0.0147,-0.0148,0,0,0.0339,0.036,0.0365,0.0398,0.0442,0.0417,0.041,0.0344,0.0322,0.0297,0.0228,0.0154,0.0097,0.0058,-0.0015,-0.0032,-0.0098,-0.0063,-0.0054,-0.0046,-0.0053,-0.0146,-0.0145,-0.0148,-0.0148,-0.0148,0,0,0.0332,0.035,0.0332,0.0372,0.036,0.0324,0.0345,0.0309,0.0259,0.0256,0.0159,0.0133,0.0106,0.0037,0.0048,-0.0065,-0.0112,-0.0114,-0.0012,-0.0002,0.0007,0.0011,-0.0092,0,0,0,0,0,0.0332,0.0365,0.0349,0.0356,0.0346,0.0352,0.0337,0.0251,0.0264,0.0246,0.0193,0.0118,-0.0024,-0.0016,-0.0027,-0.0041,-0.015,-0.015,-0.0149,-0.0022,-0.001,-0.0,0,0,0,0,0,0,0.0335,0.0349,0.0348,0.0332,0.0328,0.035,0.027,0.0245,0.0258,0.0243,0.0134,0.0113,-0.0,-0.0016,-0.0025,-0.0037,-0.0089,-0.015,-0.015,-0.0149,-0.0018,-0.0008,-0.0,0,0,0,0,0,0.0338,0.0348,0.0369,0.0326,0.0323,0.0232,0.0267,0.0245,0.0246,0.0117,0.0093,0.019,0.0003,-0.0011,-0.0022,-0.0032,-0.0083,-0.0086,-0.015,-0.0149,-0.0149,-0.0013,0,0,0,0,0,0,0.0339,0.0289,0.0363,0.0356,0.0306,0.0224,0.0214,0.0246,0.0115,0.0096,0.0162,0.0151,0.0006,-0.0005,-0.0015,-0.0027,-0.0079,-0.0082,-0.0084,-0.0149,-0.0149,-0.0149,0,0,0,0,0,0,0.0283,0.0284,0.0359,0.0338,0.0327,0.0217,0.0209,0.019,0.0115,0.0163,0.0153,0.0159,0.0034,-0.0001,-0.0009,-0.0039,-0.0075,-0.0078,-0.008,-0.0082,-0.0149,-0.0149,0,0,0,0,0,0,0.028,0.0281,0.0338,0.033,0.032,0.0221,0.0194,0.0186,0.0103,0.017,0.0095,0.0092,0.0042,0.003,-0.0005,-0.003,-0.0037,-0.0076,-0.0078,-0.0079,-0.008,0,0,0,0,0,0,0,0.0278,0.0317,0.0423,0.0323,0.0313,0.0294,0.029,0.0286,0.0102,0.0099,0.0096,0.0093,-0.0059,-0.0062,-0.0065,-0.0023,0,0,-0.0075,-0.0077,0,0,0,0,0,0,0,0,0.0312,0.0315,0.0423,0.0422,0.0422,0.0293,0.029,0.0287,0.0102,0.0099,0.0097,0.0094,-0.006,-0.0062,-0.0065,0,0,0,0,0,0,0,0,0,0,0,0,0,0,0,0.0423,0.0422,0,0.0293,0.029,0.0288,0.0101,0.0099,0.0097,0.0095,-0.006,-0.0062,-0.0065,0,0,0,0,0,0,0,0,0,0,0,0,0,0,0,0,0,0,0,0,0,0,0,0,0,0,0,0,0,0,0,0,0,0,0,0,0,0,0,0,0,0,0,0,0,0,0,0,0,0,0,0,0,0,0,0,0,0,0,0,0,0,0,0,0,0,0,0,0]}]],[[{"header":{"parameterUnit":"kt","parameterCategory":2,"dx":1,"dy":1,"la1":30.253999710083008,"la2":30.299108505249023,"lo1":-89.0895004272461,"lo2":-89.04439544677734,"nx":28,"ny":28,"refTime":"2022-10-31T21:00:00:Z","depth":"4","parameterNumber":2,"parameterNumberName":"U-component_of_CURRENTS"},"data":[0.1519,0.1553,0.1584,0.1563,0.1579,0.1709,0.1893,0.2159,0.2261,0.2693,0.287,0.3181,0.35,0.3662,0.3844,0.391,0.3806,0.4481,0.4472,0.4443,0.4461,0.4477,0.4237,0,0,0,0,0,0.165,0.1614,0.1677,0.1752,0.1903,0.1984,0.2259,0.2415,0.2821,0.2942,0.3164,0.3441,0.3725,0.3926,0.3941,0.423,0.4376,0.4225,0.4176,0.4454,0.4474,0.4234,0,0,0,0,0,0,0.1781,0.1797,0.1893,0.1994,0.2131,0.2205,0.2347,0.2543,0.2748,0.3294,0.3375,0.3813,0.4183,0.4304,0.4392,0.4466,0.4382,0.4203,0.4235,0.4256,0.4027,0.3885,0.385,0,0,0,0,0,0.1875,0.1976,0.2055,0.2178,0.2288,0.2408,0.2607,0.2718,0.3097,0.3397,0.3685,0.387,0.4224,0.4433,0.4591,0.4597,0.4753,0.4713,0.472,0.4503,0.4437,0.4372,0.4358,0.455,0.4553,0.4554,0.4555,0,0.1965,0.2039,0.2257,0.2302,0.2411,0.2586,0.2691,0.3007,0.3148,0.3629,0.3733,0.4143,0.438,0.4554,0.475,0.4848,0.4765,0.4767,0.4536,0.4467,0.4402,0.4381,0.4361,0.4571,0.457,0.4569,0.4568,0,0.1997,0.2133,0.2277,0.248,0.2558,0.2656,0.292,0.3029,0.3345,0.3612,0.3729,0.4134,0.4421,0.4629,0.4838,0.4749,0.4783,0.4738,0.4871,0.4817,0.4405,0.4378,0.4598,0.4592,0.4587,0.4583,0.4579,0,0.207,0.2183,0.2394,0.2442,0.2578,0.2751,0.292,0.3099,0.3369,0.3554,0.3818,0.4022,0.432,0.451,0.4531,0.4616,0.4778,0.4491,0.4445,0.4505,0.4479,0.4523,0.4496,0.4735,0.4733,0.4731,0.473,0,0.2102,0.2311,0.2418,0.2481,0.2698,0.2787,0.2903,0.3122,0.325,0.3567,0.3731,0.4009,0.4229,0.4321,0.4448,0.4376,0.4689,0.4564,0.4397,0.4381,0.4501,0.4478,0.4727,0.4727,0.4726,0.4726,0.4725,0,0.2205,0.2298,0.2431,0.265,0.2685,0.2772,0.2959,0.3072,0.3313,0.3458,0.3705,0.3817,0.4058,0.4012,0.4289,0.4196,0.4227,0.4253,0.426,0.4071,0.3908,0.4083,0.4276,0.4272,0.4268,0.4264,0.426,0,0.2224,0.2347,0.2438,0.2585,0.267,0.2786,0.2889,0.3019,0.3163,0.3321,0.3499,0.3673,0.3707,0.3806,0.3904,0.3973,0.4061,0.3914,0.4078,0.4085,0.3851,0.3982,0.3945,0.4203,0.421,0.4215,0.4219,0,0.2215,0.2418,0.2438,0.2532,0.2667,0.2693,0.2827,0.2942,0.306,0.32,0.3367,0.3545,0.3629,0.3709,0.3742,0.3816,0.3972,0.378,0.3783,0.3865,0.4176,0.394,0.3952,0.3916,0.3922,0.3927,0.4179,0,0.234,0.2437,0.2463,0.2565,0.2609,0.2672,0.276,0.283,0.2935,0.3016,0.321,0.3317,0.348,0.3473,0.3514,0.3663,0.366,0.3594,0.3561,0.3666,0.3758,0.379,0.3407,0.3406,0.3406,0.3405,0,0,0.2342,0.2398,0.2428,0.2484,0.2537,0.2615,0.2671,0.2738,0.2848,0.2918,0.2952,0.3201,0.3239,0.3408,0.3455,0.3436,0.3491,0.3447,0.3598,0.3619,0.3639,0.3733,0.3764,0.3404,0.3404,0.3404,0.3403,0,0.2348,0.2391,0.2418,0.2462,0.2554,0.2596,0.2622,0.2697,0.2764,0.2889,0.2961,0.3078,0.318,0.3256,0.3315,0.3415,0.3422,0.3403,0.3511,0.3587,0.3609,0.3629,0.3725,0.3753,0.3402,0.3402,0.3402,0,0.2345,0.2389,0.2403,0.2455,0.2516,0.2566,0.2596,0.2669,0.274,0.28,0.2924,0.2991,0.3084,0.3179,0.3227,0.3204,0.3374,0.328,0.3286,0.3362,0.3443,0.3467,0.3489,0.3208,0.3207,0.3206,0,0,0.2351,0.2378,0.2428,0.246,0.2486,0.2566,0.2599,0.2661,0.2749,0.2801,0.286,0.296,0.3054,0.3101,0.3164,0.3228,0.3286,0.3255,0.3264,0.3271,0.3349,0.3433,0.3456,0.3203,0.3203,0.3203,0,0,0.2355,0.2412,0.2461,0.2482,0.2529,0.2586,0.2624,0.2674,0.2778,0.2839,0.2895,0.2919,0.3033,0.3049,0.3007,0.3137,0.3103,0.3113,0.3116,0.3128,0.3137,0.3219,0.2985,0,0,0,0,0,0.2398,0.2396,0.2439,0.2453,0.2534,0.2561,0.2573,0.2656,0.2724,0.2737,0.2862,0.2851,0.3056,0.3019,0.3029,0.3056,0.3162,0.3169,0.3176,0.3197,0.321,0.322,0,0,0,0,0,0,0.2404,0.2418,0.2439,0.2493,0.2513,0.2561,0.2629,0.2651,0.2724,0.2739,0.2834,0.2851,0.2883,0.3013,0.3022,0.3047,0.2982,0.3165,0.3171,0.3177,0.3202,0.3212,0.322,0,0,0,0,0,0.2408,0.242,0.2532,0.2494,0.2511,0.2614,0.2632,0.2651,0.2721,0.2779,0.2801,0.279,0.288,0.2895,0.3018,0.3044,0.2975,0.2979,0.3169,0.3174,0.3178,0.3206,0,0,0,0,0,0,0.2412,0.2433,0.2538,0.2546,0.252,0.2615,0.2633,0.265,0.276,0.278,0.2732,0.2741,0.2876,0.2889,0.29,0.3043,0.297,0.2974,0.2976,0.3172,0.3176,0.318,0,0,0,0,0,0,0.2428,0.2439,0.2542,0.257,0.2582,0.2615,0.2631,0.2656,0.2761,0.2707,0.2718,0.2735,0.287,0.2884,0.2894,0.2928,0.2966,0.2969,0.2972,0.2973,0.3176,0.3179,0,0,0,0,0,0,0.2434,0.2444,0.2568,0.2577,0.2588,0.2686,0.264,0.2725,0.2769,0.2701,0.2778,0.2781,0.2863,0.2874,0.2889,0.2918,0.2926,0.2966,0.2969,0.297,0.2971,0,0,0,0,0,0,0,0.2439,0.2354,0.2491,0.2583,0.2593,0.2624,0.2626,0.2628,0.277,0.2773,0.2777,0.278,0.2947,0.2951,0.2955,0.291,0,0,0.2966,0.2968,0,0,0,0,0,0,0,0,0.2351,0.2353,0.2491,0.2493,0.2495,0.2624,0.2626,0.2627,0.2771,0.2773,0.2776,0.2779,0.2948,0.2951,0.2954,0,0,0,0,0,0,0,0,0,0,0,0,0,0,0,0.2491,0.2493,0,0.2624,0.2626,0.2627,0.2771,0.2773,0.2775,0.2778,0.2949,0.2951,0.2954,0,0,0,0,0,0,0,0,0,0,0,0,0,0,0,0,0,0,0,0,0,0,0,0,0,0,0,0,0,0,0,0,0,0,0,0,0,0,0,0,0,0,0,0,0,0,0,0,0,0,0,0,0,0,0,0,0,0,0,0,0,0,0,0,0,0,0,0,0]}],[{"header":{"parameterUnit":"kt","parameterCategory":2,"dx":1,"dy":1,"la1":30.253999710083008,"la2":30.299108505249023,"lo1":-89.0895004272461,"lo2":-89.04439544677734,"nx":28,"ny":28,"refTime":"2022-10-31T21:00:00:Z","depth":"4","parameterNumber":3,"parameterNumberName":"V-component_of_CURRENTS"},"data":[0.1505,0.1634,0.172,0.1897,0.2024,0.2215,0.2347,0.2412,0.2343,0.2361,0.2037,0.1919,0.1319,0.1648,0.0709,0.0593,0.0506,-0.0123,-0.0133,-0.0179,-0.0157,-0.0138,-0.0003,0,0,0,0,0,0.1516,0.1598,0.1755,0.1952,0.2128,0.2254,0.2466,0.2565,0.2644,0.2479,0.2462,0.2063,0.1422,0.1177,0.0737,0.0671,0.0226,0.014,0.011,-0.0166,-0.0142,-0.0018,0,0,0,0,0,0,0.1536,0.1598,0.1762,0.1956,0.2155,0.2309,0.2431,0.2493,0.256,0.2521,0.2425,0.2026,0.1841,0.1218,0.0786,0.0379,0.0295,0.0192,0.0195,0.0214,0.0359,0.0455,0.0172,0,0,0,0,0,0.155,0.1638,0.1744,0.197,0.2142,0.2322,0.251,0.2564,0.265,0.2683,0.2467,0.2116,0.171,0.1236,0.0783,0.0375,0.0259,0.0062,0.0074,0.0162,0.021,0.017,0.0203,-0.005,-0.0047,-0.0045,-0.0044,0,0.1581,0.1648,0.1868,0.1976,0.2065,0.2256,0.2383,0.2507,0.2575,0.2533,0.2511,0.2224,0.2032,0.132,0.0971,0.039,0.0314,0.0126,0.0222,0.0252,0.02,0.0228,0.0254,-0.0025,-0.0026,-0.0028,-0.0029,0,0.1589,0.1689,0.1809,0.1971,0.205,0.2152,0.2353,0.2428,0.2471,0.2496,0.2485,0.2303,0.1949,0.1604,0.116,0.0918,0.0528,0.0367,0.0683,0.0626,0.0278,0.0297,0.0007,0.0,-0.0006,-0.0011,-0.0015,0,0.1621,0.1698,0.1849,0.1899,0.2037,0.209,0.2226,0.2254,0.2301,0.2331,0.2232,0.2167,0.1886,0.1621,0.1333,0.091,0.0956,0.0632,0.0548,0.0844,0.0859,0.073,0.0734,0.0719,0.0721,0.0724,0.0725,0,0.1584,0.1709,0.181,0.184,0.1932,0.1997,0.2062,0.2086,0.2137,0.2122,0.2115,0.1971,0.19,0.1645,0.1322,0.1353,0.0958,0.0956,0.0649,0.0637,0.0744,0.0744,0.0728,0.0728,0.0729,0.073,0.073,0,0.1558,0.1626,0.175,0.1824,0.1847,0.1918,0.1968,0.2023,0.2005,0.1999,0.1954,0.1863,0.1751,0.168,0.1384,0.1468,0.1273,0.1118,0.1103,0.0882,0.081,0.0846,0.0905,0.0908,0.0911,0.0913,0.0915,0,0.1476,0.1597,0.1605,0.1709,0.1756,0.1734,0.1795,0.1802,0.1797,0.1804,0.1713,0.171,0.1634,0.162,0.1528,0.134,0.1242,0.1363,0.0989,0.0977,0.0843,0.0857,0.1237,0.0952,0.0948,0.0944,0.0942,0,0.1388,0.1458,0.1469,0.1503,0.1526,0.1556,0.1616,0.1628,0.1661,0.1644,0.1659,0.1622,0.1558,0.1518,0.1447,0.1361,0.1286,0.1272,0.1261,0.1147,0.1046,0.0916,0.0881,0.1249,0.1246,0.1244,0.0968,0,0.1299,0.1344,0.1388,0.1422,0.1445,0.1487,0.1476,0.1498,0.149,0.1462,0.1472,0.1399,0.1351,0.1352,0.1296,0.1273,0.1206,0.1163,0.1058,0.1139,0.1008,0.0989,0.1157,0.1153,0.1149,0.1147,0,0,0.1176,0.1228,0.1207,0.1257,0.1274,0.1223,0.1278,0.1276,0.1263,0.1261,0.1252,0.1196,0.1143,0.1133,0.1173,0.1153,0.1065,0.1122,0.1124,0.1122,0.112,0.1,0.0985,0.1141,0.114,0.1139,0.1138,0,0.112,0.1127,0.1184,0.1188,0.1195,0.1166,0.1192,0.1168,0.1168,0.1199,0.1124,0.1109,0.1089,0.1033,0.1004,0.1111,0.0966,0.1122,0.1203,0.1101,0.1104,0.1106,0.0989,0.0978,0.113,0.113,0.1131,0,0.1017,0.1018,0.1041,0.1056,0.1045,0.1076,0.1003,0.1035,0.1065,0.0947,0.0993,0.0945,0.0872,0.0897,0.0905,0.0857,0.0854,0.0896,0.0912,0.0877,0.0762,0.0768,0.0773,0.0695,0.0695,0.0694,0,0,0.0972,0.101,0.0985,0.1039,0.1045,0.1,0.1005,0.0982,0.0961,0.0956,0.0915,0.0873,0.0849,0.0842,0.0806,0.0826,0.0709,0.085,0.087,0.0888,0.0864,0.0754,0.0761,0.0691,0.0691,0.0691,0,0,0.0943,0.0934,0.0913,0.0974,0.0967,0.0917,0.095,0.092,0.0907,0.091,0.0822,0.0809,0.0841,0.0777,0.0749,0.0781,0.0688,0.0692,0.0837,0.0861,0.0881,0.0861,0.0637,0,0,0,0,0,0.0872,0.0936,0.0917,0.0923,0.0914,0.0923,0.0917,0.0886,0.0866,0.0892,0.0855,0.0784,0.0748,0.0721,0.0707,0.0759,0.0652,0.0659,0.0665,0.0855,0.0881,0.0903,0,0,0,0,0,0,0.0874,0.0881,0.0915,0.0872,0.087,0.0919,0.0853,0.0842,0.0863,0.086,0.0793,0.078,0.071,0.0722,0.071,0.0762,0.064,0.0655,0.066,0.0666,0.0864,0.0885,0.0904,0,0,0,0,0,0.0876,0.0881,0.0889,0.0869,0.0867,0.0837,0.0852,0.0843,0.0856,0.0774,0.0762,0.0844,0.0711,0.0699,0.0714,0.077,0.0648,0.0644,0.0658,0.0663,0.0667,0.0874,0,0,0,0,0,0,0.0877,0.0845,0.0886,0.0883,0.0873,0.0834,0.083,0.0844,0.0767,0.0758,0.0816,0.0814,0.0711,0.0702,0.0693,0.078,0.0654,0.065,0.0647,0.0662,0.0666,0.0669,0,0,0,0,0,0,0.0842,0.0843,0.0884,0.0892,0.0888,0.0831,0.0829,0.0788,0.0766,0.0811,0.0808,0.0816,0.073,0.0704,0.0697,0.0633,0.0658,0.0655,0.0652,0.065,0.0665,0.0668,0,0,0,0,0,0,0.0841,0.0841,0.0891,0.0889,0.0886,0.0837,0.0792,0.0783,0.0786,0.0813,0.0786,0.0786,0.0734,0.0725,0.0699,0.064,0.0635,0.0658,0.0656,0.0654,0.0653,0,0,0,0,0,0,0,0.084,0.086,0.0919,0.0886,0.0884,0.0855,0.0852,0.085,0.0786,0.0786,0.0786,0.0786,0.068,0.0676,0.0672,0.0645,0,0,0.0659,0.0657,0,0,0,0,0,0,0,0,0.0858,0.086,0.0919,0.0919,0.0919,0.0854,0.0852,0.0851,0.0786,0.0786,0.0786,0.0786,0.0679,0.0676,0.0672,0,0,0,0,0,0,0,0,0,0,0,0,0,0,0,0.0919,0.0919,0,0.0854,0.0852,0.0851,0.0786,0.0786,0.0786,0.0786,0.0678,0.0676,0.0673,0,0,0,0,0,0,0,0,0,0,0,0,0,0,0,0,0,0,0,0,0,0,0,0,0,0,0,0,0,0,0,0,0,0,0,0,0,0,0,0,0,0,0,0,0,0,0,0,0,0,0,0,0,0,0,0,0,0,0,0,0,0,0,0,0,0,0,0,0]}]]]